EW3370 Weather Reports


Display with metric or nautical units.
time (UTC)temp
F
wind
direction
speed
MPH
gust
MPH
rain 1hr
in
rain 24hr
in
rain mn
in
humidity
%
barometer
mb
20260505001028 69 285 5.0 9.0 0.00 0.01 0.01 63 1014.7
20260505000553 70 260 5.0 10.0 0.00 0.01 0.01 63 1014.6
20260505000040 70 310 5.0 12.0 0.00 0.01 0.01 63 1014.5
20260504235523 69 289 6.0 12.0 0.00 0.01 0.01 64 1014.7
20260504235029 68 267 4.0 10.0 0.00 0.01 0.01 65 1014.7
20260504234538 68 252 5.0 10.0 0.00 0.01 0.01 65 1014.7
20260504234023 68 285 5.0 10.0 0.00 0.01 0.01 65 1014.6
20260504233526 68 335 5.0 10.0 0.00 0.01 0.01 66 1014.6
20260504233033 68 317 5.0 10.0 0.00 0.01 0.01 66 1014.6
20260504232537 68 265 4.0 9.0 0.00 0.01 0.01 66 1014.7
20260504232041 68 275 5.0 11.0 0.00 0.01 0.01 65 1014.8
20260504231527 68 294 5.0 11.0 0.00 0.01 0.01 65 1014.7
20260504231029 68 311 5.0 10.0 0.00 0.01 0.01 64 1014.7
20260504230534 68 252 6.0 10.0 0.00 0.01 0.01 63 1014.6
20260504230059 69 313 5.0 11.0 0.00 0.01 0.01 63 1014.8
20260504225525 69 263 6.0 14.0 0.00 0.01 0.01 62 1014.6
20260504225032 70 283 7.0 14.0 0.00 0.01 0.01 60 1014.7
20260504224557 71 234 6.0 12.0 0.00 0.01 0.01 59 1014.5
20260504224040 71 308 5.0 12.0 0.00 0.01 0.01 60 1014.6
20260504223523 70 293 6.0 11.0 0.00 0.01 0.01 62 1014.7
20260504223024 70 336 5.0 11.0 0.00 0.01 0.01 61 1014.7
20260504222528 70 275 5.0 11.0 0.00 0.01 0.01 61 1014.8
20260504222030 70 338 5.0 13.0 0.00 0.01 0.01 61 1014.9
20260504221535 70 257 5.0 13.0 0.00 0.01 0.01 61 1014.9
20260504221039 70 328 7.0 12.0 0.00 0.01 0.01 61 1014.9
20260504220519 71 281 5.0 10.0 0.00 0.01 0.01 61 1015.1
20260504220023 70 319 4.0 11.0 0.00 0.01 0.01 60 1015.1
20260504215547 71 267 6.0 11.0 0.00 0.01 0.01 59 1015.3
20260504215037 71 292 6.0 11.0 0.00 0.01 0.01 60 1015.1
20260504214519 71 336 5.0 13.0 0.00 0.01 0.01 60 1015.2
20260504214044 71 242 6.0 13.0 0.00 0.01 0.01 60 1015.2
20260504213528 71 338 6.0 11.0 0.00 0.01 0.01 59 1015.5
20260504213021 71 247 5.0 11.0 0.00 0.01 0.01 62 1015.4
20260504212548 71 277 6.0 11.0 0.00 0.01 0.01 60 1015.5
20260504212056 71 313 6.0 11.0 0.00 0.01 0.01 61 1015.5
20260504211540 71 281 6.0 10.0 0.00 0.01 0.01 60 1015.5
20260504211044 71 293 4.0 10.0 0.00 0.01 0.01 61 1015.7
20260504210528 70 283 5.0 9.0 0.00 0.01 0.01 61 1015.6
20260504210037 70 317 5.0 12.0 0.00 0.01 0.01 61 1015.6
20260504205519 70 276 6.0 12.0 0.00 0.01 0.01 61 1015.7
20260504205024 70 285 5.0 11.0 0.00 0.01 0.01 63 1015.8
20260504204529 70 329 6.0 13.0 0.00 0.01 0.01 62 1015.7
20260504204036 71 312 6.0 13.0 0.00 0.01 0.01 61 1015.8
20260504203525 70 258 4.0 10.0 0.00 0.01 0.01 62 1015.6
20260504203027 70 315 4.0 10.0 0.00 0.01 0.01 61 1015.7
20260504202528 70 298 5.0 11.0 0.00 0.01 0.01 63 1015.8
20260504202037 70 281 5.0 11.0 0.00 0.01 0.01 62 1015.8
20260504201539 70 300 6.0 11.0 0.00 0.01 0.01 62 1015.8
20260504201019 70 304 6.0 11.0 0.00 0.01 0.01 62 1015.8
20260504200519 70 286 5.0 10.0 0.00 0.01 0.01 62 1015.9
20260504200045 70 316 5.0 10.0 0.00 0.01 0.01 62 1015.8
20260504195525 70 287 5.0 10.0 0.00 0.01 0.01 63 1015.8
20260504195026 70 317 5.0 10.0 0.00 0.01 0.01 63 1015.7
20260504194551 69 271 4.0 11.0 0.00 0.01 0.01 64 1015.7
20260504194036 69 311 5.0 11.0 0.00 0.01 0.01 62 1015.9
20260504193521 69 261 5.0 11.0 0.00 0.01 0.01 63 1015.9
20260504193024 70 278 5.0 8.0 0.00 0.01 0.01 63 1016.0
20260504192530 70 321 4.0 10.0 0.00 0.01 0.01 62 1016.1
20260504192034 69 338 3.0 10.0 0.00 0.01 0.01 64 1016.1
20260504191535 69 315 5.0 10.0 0.00 0.01 0.01 63 1016.1
20260504191020 69 289 5.0 9.0 0.00 0.01 0.01 63 1016.1
20260504190521 69 319 4.0 9.0 0.00 0.01 0.01 65 1016.1
20260504190021 69 279 4.0 9.0 0.00 0.01 0.01 65 1016.0
20260504185548 69 305 4.0 9.0 0.00 0.01 0.01 64 1016.0
20260504185026 69 271 3.0 9.0 0.00 0.01 0.01 65 1016.3
20260504184527 68 259 4.0 10.0 0.00 0.01 0.01 67 1016.3
20260504184022 68 319 6.0 10.0 0.00 0.01 0.01 66 1016.2
20260504183531 68 257 4.0 9.0 0.00 0.01 0.01 67 1016.2
20260504183023 68 288 4.0 9.0 0.00 0.01 0.01 66 1016.3
20260504182535 68 256 5.0 9.0 0.00 0.01 0.01 66 1016.2
20260504182041 68 280 4.0 10.0 0.00 0.01 0.01 67 1016.3
20260504181536 68 271 4.0 10.0 0.00 0.01 0.01 67 1016.2
20260504181037 68 260 4.0 9.0 0.00 0.01 0.01 67 1016.2
20260504180535 68 279 4.0 10.0 0.00 0.01 0.01 67 1016.3
20260504180033 68 221 6.0 10.0 0.00 0.01 0.01 67 1016.2
20260504175529 67 283 4.0 8.0 0.00 0.01 0.01 68 1016.2
20260504175024 67 316 4.0 9.0 0.00 0.01 0.01 69 1016.1
20260504174522 67 289 4.0 9.0 0.00 0.01 0.01 68 1016.1
20260504174040 67 273 4.0 9.0 0.01 0.01 0.01 68 1016.0
20260504173556 66 249 5.0 10.0 0.01 0.01 0.01 68 1016.0
20260504173040 66 285 4.0 10.0 0.01 0.01 0.01 71 1015.9
20260504172535 65 311 3.0 8.0 0.01 0.01 0.01 71 1016.0
20260504172023 65 281 4.0 8.0 0.01 0.01 0.01 71 1015.9
20260504171547 65 280 4.0 9.0 0.01 0.01 0.01 71 1015.8
20260504171028 64 310 4.0 9.0 0.01 0.01 0.01 72 1015.9
20260504170533 64 322 4.0 8.0 0.01 0.01 0.01 73 1015.7
20260504151025 61 41 1.0 1.0 0.00 0.01 0.00 84 1015.2
20260504150534 60 42 0.0 1.0 0.00 0.01 0.00 83 1015.1
20260504141019 59 41 0.0 1.0 0.00 0.01 0.00 87 1014.9
20260504140531 58 41 0.0 2.0 0.00 0.02 0.00 87 1014.9
20260504130526 58 34 2.0 6.0 0.00 0.02 0.00 85 1014.6
20260504110526 60 355 0.0 4.0 0.00 0.02 0.00 80 1014.2
20260504100531 61 5 2.0 6.0 0.00 0.02 0.00 79 1014.0
20260504081527 61 313 5.0 10.0 0.00 0.02 0.00 81 1014.7
20260504081049 61 319 3.0 7.0 0.00 0.02 0.00 81 1014.8
20260504080557 62 30 3.0 8.0 0.00 0.02 0.00 82 1015.1
20260504050551 63 270 2.0 4.0 0.00 0.02 0.02 77 1014.6
20260504045532 63 285 1.0 5.0 0.00 0.02 0.02 76 1014.5
20260504045038 63 290 2.0 5.0 0.00 0.02 0.02 77 1014.6
20260504044523 63 267 0.0 5.0 0.00 0.02 0.02 77 1014.5
20260504044029 63 265 2.0 5.0 0.00 0.02 0.02 77 1014.5
20260504043555 63 273 2.0 4.0 0.00 0.02 0.02 77 1014.2
20260504043101 63 278 2.0 3.0 0.00 0.02 0.02 77 1014.1
20260504042523 63 283 1.0 6.0 0.00 0.02 0.02 77 1014.1
20260504042048 63 275 2.0 6.0 0.00 0.02 0.02 76 1014.1
20260504041530 63 281 3.0 6.0 0.00 0.02 0.02 76 1014.1
20260504041035 63 276 2.0 6.0 0.00 0.02 0.02 75 1014.1
20260504040522 63 285 3.0 6.0 0.00 0.02 0.02 75 1014.2
20260504040049 64 273 3.0 6.0 0.00 0.02 0.02 75 1014.2
20260504035539 64 304 2.0 6.0 0.00 0.02 0.02 75 1014.1
20260504035022 63 238 2.0 5.0 0.00 0.02 0.02 74 1014.0
20260504034525 63 271 3.0 5.0 0.00 0.02 0.02 74 1014.1
20260504034033 63 274 2.0 5.0 0.00 0.02 0.02 73 1014.1
20260504033538 64 254 2.0 5.0 0.00 0.02 0.02 73 1014.1
20260504033023 64 253 2.0 5.0 0.00 0.02 0.02 73 1014.0
20260504032526 64 274 1.0 4.0 0.00 0.02 0.02 73 1014.0
20260504032031 64 273 2.0 5.0 0.00 0.02 0.02 72 1013.9
20260504031537 64 303 2.0 5.0 0.00 0.02 0.02 72 1013.9
20260504031023 64 250 2.0 4.0 0.00 0.02 0.02 72 1013.8
20260504030519 64 257 2.0 4.0 0.00 0.02 0.02 72 1013.8
20260504030049 64 257 3.0 4.0 0.00 0.02 0.02 71 1013.5
20260504025536 64 292 2.0 5.0 0.00 0.02 0.02 71 1013.5
20260504025042 64 261 2.0 7.0 0.00 0.02 0.02 71 1013.5
20260504024528 64 295 3.0 7.0 0.00 0.02 0.02 71 1013.5
20260504024035 64 291 3.0 7.0 0.00 0.02 0.02 71 1013.4
20260504023540 64 261 3.0 7.0 0.00 0.02 0.02 71 1013.4
20260504023021 64 295 3.0 7.0 0.00 0.02 0.02 70 1013.4
20260504022523 64 333 3.0 7.0 0.00 0.02 0.02 70 1013.5
20260504022024 64 282 3.0 9.0 0.00 0.02 0.02 70 1013.6
20260504021524 64 244 2.0 9.0 0.00 0.02 0.02 70 1013.6
20260504021027 64 325 4.0 9.0 0.00 0.02 0.02 70 1013.6
20260504020532 64 310 4.0 7.0 0.00 0.02 0.02 70 1013.5
20260504020031 64 302 3.0 8.0 0.00 0.02 0.02 69 1013.4
20260504015558 64 294 3.0 8.0 0.00 0.02 0.02 69 1013.5
20260504015019 65 295 4.0 8.0 0.00 0.02 0.02 69 1013.4
20260504014529 65 258 4.0 8.0 0.00 0.02 0.02 68 1013.2
20260504014034 65 276 4.0 8.0 0.00 0.02 0.02 68 1013.3
20260504013541 65 262 4.0 7.0 0.00 0.02 0.02 68 1013.3
20260504013051 65 265 3.0 7.0 0.00 0.02 0.02 69 1013.3
20260504012558 65 325 4.0 7.0 0.00 0.02 0.02 67 1013.1
20260504012019 65 306 4.0 9.0 0.00 0.02 0.02 67 1013.0
20260504011534 65 286 3.0 9.0 0.00 0.02 0.02 67 1013.1
20260504011040 66 281 3.0 8.0 0.00 0.02 0.02 67 1013.1
20260504010523 66 300 3.0 8.0 0.00 0.02 0.02 67 1013.0
20260504010025 66 229 4.0 9.0 0.00 0.02 0.02 67 1013.0
20260504005526 66 270 5.0 9.0 0.00 0.02 0.02 66 1013.0
20260504005035 66 288 4.0 8.0 0.00 0.02 0.02 66 1012.9
20260504004537 66 269 4.0 8.0 0.00 0.02 0.02 66 1012.8
20260504004019 66 315 3.0 9.0 0.00 0.02 0.02 67 1012.8
20260504003528 66 311 5.0 10.0 0.00 0.02 0.02 66 1012.9
20260504003027 66 279 4.0 10.0 0.00 0.02 0.02 66 1012.7
20260504002551 66 317 3.0 9.0 0.00 0.02 0.02 65 1012.8
20260504002033 67 242 5.0 9.0 0.00 0.02 0.02 64 1012.9
20260504001539 67 317 4.0 7.0 0.00 0.02 0.02 64 1012.8